This demonstration page uses our WeatherBlox Daily Observations layout. Learn more.

Left ArrowRight Arrow

Hourly Observations for July 20, 2016

Temp ( °F °C ) Dew Point ( °F °C ) Humidity (%) Winds ( mph kmh ) Pressure ( in mb ) Visibility ( mi km ) Precip ( " mm )
12:58 am 00:58 Clear 74 23.6 73 22.9 96 96 ESE 7 11 30.05 1018 10 16 0.00 0.00
1:58 am 01:58 Clear 74 23.2 73 22.9 98 98 E 7 11 30.04 1017 10 16 0.00 0.00
2:58 am 02:58 Clear 75 24.1 74 23.3 95 95 ESE 7 11 30.05 1018 10 16 0.00 0.00
3:58 am 03:58 Clear 76 24.2 74 23.2 94 94 ESE 8 13 30.05 1018 10 16 0.00 0.00
4:58 am 04:58 Clear 74 23.5 73 22.9 96 96 SE 8 13 30.05 1018 10 16 0.00 0.00
5:58 am 05:58 Clear 75 23.8 74 23.2 96 96 SSE 5 7 30.04 1017 10 16 0.00 0.00
6:58 am 06:58 Sunny 76 24.2 74 23.5 96 96 SE 7 11 30.05 1018 10 16 0.00 0.00
7:58 am 07:58 Sunny 79 26 74 23.6 87 87 S 12 19 30.05 1018 10 16 0.00 0.00
8:58 am 08:58 Sunny 82 27.9 75 23.7 78 78 S 10 17 30.05 1018 10 16 0.00 0.00
9:58 am 09:58 Sunny 85 29.6 75 24.1 72 72 S 13 20 30.02 1017 10 16 0.00 0.00
10:58 am 10:58 Sunny 88 30.9 76 24.4 68 68 S 14 22 30.02 1017 10 16 0.00 0.00
11:58 am 11:58 Sunny 90 32.1 78 25.4 68 68 S 15 24 30.02 1017 10 16 0.00 0.00
12:58 pm 12:58 Sunny 91 33 78 25.4 64 64 S 13 20 30.00 1016 10 16 0.00 0.00
1:58 pm 13:58 Sunny 92 33.6 77 25.1 61 61 SSE 18 30 29.98 1015 10 16 0.00 0.00
2:58 pm 14:58 Sunny 93 33.9 78 25.4 61 61 SSE 17 28 29.96 1015 10 16 0.00 0.00
3:58 pm 15:58 Sunny 94 34.2 77 25.1 59 59 SSE 18 30 29.96 1015 10 16 0.00 0.00
4:58 pm 16:58 Sunny 94 34.3 76 24.5 57 57 SSE 17 28 29.96 1015 10 16 0.00 0.03
5:58 pm 17:58 Sunny 93 34.1 78 25.8 62 62 SSE 14 22 29.94 1014 10 16 0.00 0.00
6:58 pm 18:58 Sunny 92 33.2 78 25.6 64 64 SSE 12 19 29.93 1014 10 16 0.00 0.00
7:58 pm 19:58 Sunny 90 32 77 25.2 67 67 SE 14 22 29.93 1014 10 16 0.00 0.00
8:58 pm 20:58 Clear 86 30.2 78 25.4 76 76 SE 12 19 29.93 1014 10 16 0.00 0.00
9:58 pm 21:58 Clear 85 29.4 77 24.9 77 77 SE 12 19 29.95 1014 10 16 0.00 0.00
10:58 pm 22:58 Clear 84 29.1 77 24.8 78 78 SE 14 22 29.95 1014 10 16 0.00 0.00
11:58 pm 23:58 Clear 83 28.3 76 24.7 81 81 SSE 10 17 29.95 1014 10 16 0.00 0.00

Powered by AerisWeather